Year,Month,Day,Hour,Minute,Value (Times are PST for barometer in hPa)
2022,12,06,00,00,1005.36
2022,12,06,00,01,1004.81
2022,12,06,00,02,1004.81
2022,12,06,00,03,1004.83
2022,12,06,00,04,1004.88
2022,12,06,00,05,1004.88
2022,12,06,00,06,1004.87
2022,12,06,00,07,1004.85
2022,12,06,00,08,1004.87
2022,12,06,00,09,1004.84
2022,12,06,00,10,1004.84
2022,12,06,00,11,1005.01
2022,12,06,00,12,1005.49
2022,12,06,00,13,1005.49
2022,12,06,00,14,1005.49
2022,12,06,00,15,1005.49
2022,12,06,00,16,1006.15
2022,12,06,00,17,1008.13
2022,12,06,00,18,1008.13
2022,12,06,00,19,1007.31
2022,12,06,00,20,1004.71
2022,12,06,00,21,1004.43
2022,12,06,00,22,1004.81
2022,12,06,00,23,1004.81
2022,12,06,00,24,1004.81
2022,12,06,00,25,1004.80
2022,12,06,00,26,1004.84
2022,12,06,00,27,1004.88
2022,12,06,00,28,1004.45
2022,12,06,00,29,1004.33
2022,12,06,00,30,1004.50
2022,12,06,00,31,1004.50
2022,12,06,00,32,1004.22
2022,12,06,00,33,1003.39
2022,12,06,00,34,1003.39
2022,12,06,00,35,1003.39
2022,12,06,00,36,1003.39
2022,12,06,00,37,1004.68
2022,12,06,00,38,1008.57
2022,12,06,00,39,1008.57
2022,12,06,00,40,1008.57
2022,12,06,00,41,1008.57
2022,12,06,00,42,1008.57
2022,12,06,00,43,1008.57
2022,12,06,00,44,1008.57
2022,12,06,00,45,1008.57
2022,12,06,00,46,1008.57
2022,12,06,00,47,1008.57
2022,12,06,00,48,1008.57
2022,12,06,00,49,1008.57
2022,12,06,00,50,1008.57
2022,12,06,00,51,1008.57
2022,12,06,00,52,1010.52
2022,12,06,00,53,1016.36
2022,12,06,00,54,1016.36
2022,12,06,00,55,1016.22
2022,12,06,00,56,1015.82
2022,12,06,00,57,1015.98
2022,12,06,00,58,1016.39
2022,12,06,00,59,1017.68
2022,12,06,01,00,1017.91
2022,12,06,01,01,1017.82
2022,12,06,01,02,1017.95
2022,12,06,01,03,1017.95
2022,12,06,01,04,1017.97
2022,12,06,01,05,1018.05
2022,12,06,01,06,1018.04
2022,12,06,01,07,1018.02
2022,12,06,01,08,1018.02
2022,12,06,01,09,1018.01
2022,12,06,01,10,1017.98
2022,12,06,01,11,1017.99
2022,12,06,01,12,1018.02
2022,12,06,01,13,1017.68
2022,12,06,01,14,1016.66
2022,12,06,01,15,1016.66
2022,12,06,01,16,1016.66
2022,12,06,01,17,1016.66
2022,12,06,01,18,1016.66
2022,12,06,01,19,1016.66
2022,12,06,01,20,1016.66
2022,12,06,01,21,1016.66
2022,12,06,01,22,1016.66
2022,12,06,01,23,1016.66
2022,12,06,01,24,1016.66
2022,12,06,01,25,1016.66
2022,12,06,01,26,1016.66
2022,12,06,01,27,1016.66
2022,12,06,01,28,1016.95
2022,12,06,01,29,1018.05
2022,12,06,01,30,1018.05
2022,12,06,01,31,1018.05
2022,12,06,01,32,1018.05
2022,12,06,01,33,1018.05
2022,12,06,01,34,1018.05
2022,12,06,01,35,1018.05
2022,12,06,01,36,1018.05
2022,12,06,01,37,1018.05
2022,12,06,01,38,1018.05
2022,12,06,01,39,1018.05
2022,12,06,01,40,1018.05
2022,12,06,01,41,1018.04
2022,12,06,01,42,1018.02
2022,12,06,01,43,1018.02
2022,12,06,01,44,1018.01
2022,12,06,01,45,1017.98
2022,12,06,01,46,1017.98
2022,12,06,01,47,1017.98
2022,12,06,01,48,1017.29
2022,12,06,01,49,1015.21
2022,12,06,01,50,1015.21
2022,12,06,01,51,1015.21
2022,12,06,01,52,1015.21
2022,12,06,01,53,1015.21
2022,12,06,01,54,1015.21
2022,12,06,01,55,1015.21
2022,12,06,01,56,1015.21
2022,12,06,01,57,1015.21
2022,12,06,01,58,1015.21
2022,12,06,01,59,1015.21
2022,12,06,02,00,1015.21
2022,12,06,02,01,1015.21
2022,12,06,02,02,1015.21
2022,12,06,02,03,1015.21
2022,12,06,02,04,1015.21
2022,12,06,02,05,1015.21
2022,12,06,02,06,1015.21
2022,12,06,02,07,1015.21
2022,12,06,02,08,1015.21
2022,12,06,02,09,1015.21
2022,12,06,02,10,1015.21
2022,12,06,02,11,1015.21
2022,12,06,02,12,1015.21
2022,12,06,02,13,1015.21
2022,12,06,02,14,1015.21
2022,12,06,02,15,1015.21
2022,12,06,02,16,1015.21
2022,12,06,02,17,1014.91
2022,12,06,02,18,1014.16
2022,12,06,02,19,1014.66
2022,12,06,02,20,1014.66
2022,12,06,02,21,1014.66
2022,12,06,02,22,1014.72
2022,12,06,02,23,1014.90
2022,12,06,02,24,1014.90
2022,12,06,02,25,1014.90
2022,12,06,02,26,1015.31
2022,12,06,02,27,1016.87
2022,12,06,02,28,1016.87
2022,12,06,02,29,1016.86
2022,12,06,02,30,1016.84
2022,12,06,02,31,1016.87
2022,12,06,02,32,1017.15
2022,12,06,02,33,1018.30
2022,12,06,02,34,1018.31
2022,12,06,02,35,1018.30
2022,12,06,02,36,1018.32
2022,12,06,02,37,1018.32
2022,12,06,02,38,1018.31
2022,12,06,02,39,1018.30
2022,12,06,02,40,1018.31
2022,12,06,02,41,1018.30
2022,12,06,02,42,1018.32
2022,12,06,02,43,1018.30
2022,12,06,02,44,1018.26
2022,12,06,02,45,1018.28
2022,12,06,02,46,1018.25
2022,12,06,02,47,1018.24
2022,12,06,02,48,1018.22
2022,12,06,02,49,1018.22
2022,12,06,02,50,1018.22
2022,12,06,02,51,1018.22
2022,12,06,02,52,1018.23
2022,12,06,02,53,1018.24
2022,12,06,02,54,1018.22
2022,12,06,02,55,1018.23
2022,12,06,02,56,1018.24
2022,12,06,02,57,1018.23
2022,12,06,02,58,1018.25
2022,12,06,02,59,1018.25
2022,12,06,03,00,1018.25
2022,12,06,03,01,1018.25
2022,12,06,03,02,1018.25
2022,12,06,03,06,1018.22
2022,12,06,03,07,1018.12
2022,12,06,03,08,1018.00
2022,12,06,03,09,1018.02
2022,12,06,03,10,1018.02
2022,12,06,03,11,1018.02
2022,12,06,03,12,1018.02
2022,12,06,03,13,1018.02
2022,12,06,03,14,1017.98
2022,12,06,03,15,1017.91
2022,12,06,03,16,1017.91
2022,12,06,03,17,1017.91
2022,12,06,03,18,1017.91
2022,12,06,03,19,1017.91
2022,12,06,03,20,1017.91
2022,12,06,03,21,1017.91
2022,12,06,03,22,1017.91
2022,12,06,03,23,1017.36
2022,12,06,03,24,1016.53
2022,12,06,03,25,1016.53
2022,12,06,03,26,1016.53
2022,12,06,03,27,1017.18
2022,12,06,03,28,1018.15
2022,12,06,03,29,1018.15
2022,12,06,03,30,1018.15
2022,12,06,03,31,1018.14
2022,12,06,03,32,1018.12
2022,12,06,03,33,1016.96
2022,12,06,03,34,1015.21
2022,12,06,03,35,1015.21
2022,12,06,03,36,1015.21
2022,12,06,03,37,1015.21
2022,12,06,03,38,1015.21
2022,12,06,03,39,1014.70
2022,12,06,03,40,1013.75
2022,12,06,03,41,1014.89
2022,12,06,03,42,1016.59
2022,12,06,03,43,1016.61
2022,12,06,03,44,1016.63
2022,12,06,03,45,1016.63
2022,12,06,03,46,1016.63
2022,12,06,03,47,1017.15
2022,12,06,03,48,1018.05
2022,12,06,03,49,1018.05
2022,12,06,03,50,1018.06
2022,12,06,03,51,1018.07
2022,12,06,03,52,1018.06
2022,12,06,03,53,1018.08
2022,12,06,03,54,1018.10
2022,12,06,03,55,1018.09
2022,12,06,03,56,1018.06
2022,12,06,03,57,1018.07
2022,12,06,03,58,1018.05
2022,12,06,03,59,1018.05
2022,12,06,04,00,1018.05
2022,12,06,04,01,1018.05
2022,12,06,04,02,1017.47
2022,12,06,04,03,1016.59
2022,12,06,04,04,1017.17
2022,12,06,04,05,1018.05
2022,12,06,04,06,1018.05
2022,12,06,04,07,1018.05
2022,12,06,04,08,1018.05
2022,12,06,04,09,1018.05
2022,12,06,04,10,1018.05
2022,12,06,04,11,1018.05
2022,12,06,04,12,1018.04
2022,12,06,04,13,1018.02
2022,12,06,04,14,1018.02
2022,12,06,04,15,1018.02
2022,12,06,04,16,1018.02
2022,12,06,04,17,1018.02
2022,12,06,04,18,1018.02
2022,12,06,04,19,1018.02
2022,12,06,04,20,1018.02
2022,12,06,04,21,1018.02
2022,12,06,04,22,1018.00
2022,12,06,04,23,1018.00
2022,12,06,04,24,1018.02
2022,12,06,04,25,1018.02
2022,12,06,04,26,1018.01
2022,12,06,04,27,1017.98
2022,12,06,04,28,1017.98
2022,12,06,04,29,1017.98
2022,12,06,04,30,1017.98
2022,12,06,04,31,1017.98
2022,12,06,04,32,1017.98
2022,12,06,04,33,1017.98
2022,12,06,04,34,1017.97
2022,12,06,04,35,1017.95
2022,12,06,04,36,1017.95
2022,12,06,04,37,1013.44
2022,12,06,04,38,1004.88
2022,12,06,04,39,1004.88
2022,12,06,04,40,1004.88
2022,12,06,04,41,1004.88
2022,12,06,04,42,1009.70
2022,12,06,04,43,1017.95
2022,12,06,04,44,1017.95
2022,12,06,04,45,1015.34
2022,12,06,04,46,1010.87
2022,12,06,04,47,1009.75
2022,12,06,04,48,1008.06
2022,12,06,04,49,1008.06
2022,12,06,04,50,1009.77
2022,12,06,04,51,1012.33
2022,12,06,04,52,1012.33
2022,12,06,04,53,1012.33
2022,12,06,04,54,1012.33
2022,12,06,04,55,1012.33
2022,12,06,04,56,1012.33
2022,12,06,04,57,1012.33
2022,12,06,04,58,1014.36
2022,12,06,04,59,1018.11
2022,12,06,05,00,1018.09
2022,12,06,05,01,1018.09
2022,12,06,05,02,1018.05
2022,12,06,05,03,1018.05
2022,12,06,05,04,1018.05
2022,12,06,05,05,1018.04
2022,12,06,05,06,1018.02
2022,12,06,05,07,1018.02
2022,12,06,05,08,1018.02
2022,12,06,05,09,1018.02
2022,12,06,05,10,1018.03
2022,12,06,05,11,1018.04
2022,12,06,05,12,1018.03
2022,12,06,05,13,1018.05
2022,12,06,05,14,1018.05
2022,12,06,05,15,1018.05
2022,12,06,05,16,1018.04
2022,12,06,05,17,1018.02
2022,12,06,05,18,1018.02
2022,12,06,05,19,1018.03
2022,12,06,05,20,1018.05
2022,12,06,05,21,1018.05
2022,12,06,05,22,1018.05
2022,12,06,05,23,1018.06
2022,12,06,05,24,1018.06
2022,12,06,05,25,1018.02
2022,12,06,05,26,1018.02
2022,12,06,05,27,1018.00
2022,12,06,05,28,1017.97
2022,12,06,05,29,1017.97
2022,12,06,05,30,1018.02
2022,12,06,05,31,1018.01
2022,12,06,05,32,1017.98
2022,12,06,05,33,1017.97
2022,12,06,05,34,1017.96
2022,12,06,05,35,1017.98
2022,12,06,05,36,1017.97
2022,12,06,05,37,1017.95
2022,12,06,05,38,1017.95
2022,12,06,05,39,1017.94
2022,12,06,05,40,1017.93
2022,12,06,05,41,1017.95
2022,12,06,05,42,1017.94
2022,12,06,05,43,1017.91
2022,12,06,05,44,1017.93
2022,12,06,05,45,1017.94
2022,12,06,05,46,1017.91
2022,12,06,05,47,1017.91
2022,12,06,05,48,1017.91
2022,12,06,05,49,1017.39
2022,12,06,05,50,1016.42
2022,12,06,05,51,1016.96
2022,12,06,05,52,1017.88
2022,12,06,05,53,1017.88
2022,12,06,05,54,1017.87
2022,12,06,05,55,1017.85
2022,12,06,05,56,1017.85
2022,12,06,05,57,1017.85
2022,12,06,05,58,1017.84
2022,12,06,05,59,1017.73
2022,12,06,06,00,1017.64
2022,12,06,06,01,1017.75
2022,12,06,06,02,1017.75
2022,12,06,06,03,1017.75
2022,12,06,06,04,1017.75
2022,12,06,06,05,1017.75
2022,12,06,06,06,1017.75
2022,12,06,06,07,1015.76
2022,12,06,06,08,1012.06
2022,12,06,06,09,1012.06
2022,12,06,06,10,1012.06
2022,12,06,06,11,1012.06
2022,12,06,06,12,1012.06
2022,12,06,06,13,1012.06
2022,12,06,06,14,1012.96
2022,12,06,06,15,1014.63
2022,12,06,06,16,1014.88
2022,12,06,06,17,1015.26
2022,12,06,06,18,1015.10
2022,12,06,06,19,1015.04
2022,12,06,06,20,1014.93
2022,12,06,06,21,1012.44
2022,12,06,06,22,1007.80
2022,12,06,06,23,1007.77
2022,12,06,06,24,1007.79
2022,12,06,06,25,1007.79
2022,12,06,06,26,1007.79
2022,12,06,06,27,1010.86
2022,12,06,06,28,1016.19
2022,12,06,06,29,1016.32
2022,12,06,06,30,1016.32
2022,12,06,06,31,1016.32
2022,12,06,06,32,1016.32
2022,12,06,06,33,1016.32
2022,12,06,06,34,1015.80
2022,12,06,06,35,1014.90
2022,12,06,06,36,1015.29
2022,12,06,06,37,1016.12
2022,12,06,06,38,1016.12
2022,12,06,06,39,1016.12
2022,12,06,06,40,1016.12
2022,12,06,06,41,1016.12
2022,12,06,06,42,1016.72
2022,12,06,06,43,1017.86
2022,12,06,06,44,1017.88
2022,12,06,06,45,1017.89
2022,12,06,06,46,1017.90
2022,12,06,06,47,1017.89
2022,12,06,06,48,1017.91
2022,12,06,06,49,1017.91
2022,12,06,06,50,1017.90
2022,12,06,06,51,1017.88
2022,12,06,06,52,1017.89
2022,12,06,06,53,1017.91
2022,12,06,06,54,1016.28
2022,12,06,06,55,1010.84
2022,12,06,06,56,1010.84
2022,12,06,06,57,1010.84
2022,12,06,06,58,1010.84
2022,12,06,06,59,1010.84
2022,12,06,07,00,1010.84
2022,12,06,07,01,1009.83
2022,12,06,07,02,1008.09
2022,12,06,07,03,1008.09
2022,12,06,07,04,1008.09
2022,12,06,07,05,1008.09
2022,12,06,07,06,1008.09
2022,12,06,07,07,1008.09
2022,12,06,07,08,1008.09
2022,12,06,07,09,1008.09
2022,12,06,07,10,1008.09
2022,12,06,07,11,1010.60
2022,12,06,07,12,1016.24
2022,12,06,07,13,1016.36
2022,12,06,07,14,1016.95
2022,12,06,07,15,1017.85
2022,12,06,07,16,1017.41
2022,12,06,07,17,1017.41
2022,12,06,07,18,1017.41
2022,12,06,07,19,1017.41
2022,12,06,07,20,1017.41
2022,12,06,07,21,1017.41
2022,12,06,07,22,1017.41
2022,12,06,07,23,1017.41
2022,12,06,07,24,1015.06
2022,12,06,07,25,1010.60
2022,12,06,07,26,1008.80
2022,12,06,07,27,1005.14
2022,12,06,07,28,1005.52
2022,12,06,07,29,1005.87
2022,12,06,07,30,1005.96
2022,12,06,07,31,1006.17
2022,12,06,07,32,1006.38
2022,12,06,07,33,1006.41
2022,12,06,07,34,1006.30
2022,12,06,07,35,1005.97
2022,12,06,07,36,1005.18
2022,12,06,07,37,1005.05
2022,12,06,07,38,1005.05
2022,12,06,07,39,1005.05
2022,12,06,07,40,1004.69
2022,12,06,07,41,1003.90
2022,12,06,07,42,1004.52
2022,12,06,07,43,1005.59
2022,12,06,07,44,1005.49
2022,12,06,07,45,1005.83
2022,12,06,07,46,1006.83
2022,12,06,07,47,1006.51
2022,12,06,07,48,1006.51
2022,12,06,07,49,1006.64
2022,12,06,07,50,1006.64
2022,12,06,07,51,1006.74
2022,12,06,07,52,1007.12
2022,12,06,07,53,1007.52
2022,12,06,07,54,1007.52
2022,12,06,07,55,1007.02
2022,12,06,07,56,1005.72
2022,12,06,07,57,1005.32
2022,12,06,07,58,1005.32
2022,12,06,07,59,1005.50
2022,12,06,08,00,1005.83
2022,12,06,08,01,1005.83
2022,12,06,08,02,1005.83
2022,12,06,08,03,1005.83
2022,12,06,08,04,1005.83
2022,12,06,08,05,1005.75
2022,12,06,08,06,1005.45
2022,12,06,08,07,1005.37
2022,12,06,08,08,1005.66
2022,12,06,08,09,1005.66
2022,12,06,08,10,1005.66
2022,12,06,08,11,1005.66
2022,12,06,08,12,1005.24
2022,12,06,08,13,1004.34
2022,12,06,08,14,1004.34
2022,12,06,08,15,1004.64
2022,12,06,08,16,1005.46
2022,12,06,08,17,1005.54
2022,12,06,08,18,1004.99
2022,12,06,08,19,1004.57
2022,12,06,08,20,1005.72
2022,12,06,08,21,1007.86
2022,12,06,08,22,1007.86
2022,12,06,08,23,1007.69
2022,12,06,08,24,1007.38
2022,12,06,08,25,1007.38
2022,12,06,08,26,1007.38
2022,12,06,08,27,1007.38
2022,12,06,08,28,1007.38
2022,12,06,08,29,1006.81
2022,12,06,08,30,1005.76
2022,12,06,08,31,1005.76
2022,12,06,08,32,1005.76
2022,12,06,08,33,1005.94
2022,12,06,08,34,1006.27
2022,12,06,08,35,1006.27
2022,12,06,08,36,1006.27
2022,12,06,08,37,1006.27
2022,12,06,08,38,1006.27
2022,12,06,08,39,1006.27
2022,12,06,08,40,1006.22
2022,12,06,08,41,1006.10
2022,12,06,08,42,1005.35
2022,12,06,08,43,1003.96
2022,12,06,08,44,1003.58
2022,12,06,08,45,1002.96
2022,12,06,08,46,1003.12
2022,12,06,08,47,1003.12
2022,12,06,08,48,1003.12
2022,12,06,08,49,1003.12
2022,12,06,08,50,1003.12
2022,12,06,08,51,1003.12
2022,12,06,08,52,1003.12
2022,12,06,08,53,1003.12
2022,12,06,08,54,1003.12
2022,12,06,08,55,1003.12
2022,12,06,08,56,1004.77
2022,12,06,08,57,1007.82
2022,12,06,08,58,1007.82
2022,12,06,08,59,1007.82
2022,12,06,09,00,1007.82
2022,12,06,09,01,1007.49
2022,12,06,09,02,1006.71
2022,12,06,09,03,1006.71
2022,12,06,09,04,1006.80
2022,12,06,09,05,1006.98
2022,12,06,09,06,1006.98
2022,12,06,09,07,1006.98
2022,12,06,09,08,1006.98
2022,12,06,09,09,1006.98
2022,12,06,09,10,1006.98
2022,12,06,09,11,1006.98
2022,12,06,09,12,1006.98
2022,12,06,09,13,1006.98
2022,12,06,09,14,1007.68
2022,12,06,09,15,1009.21
2022,12,06,09,16,1007.85
2022,12,06,09,17,1005.32
2022,12,06,09,18,1005.32
2022,12,06,09,19,1005.32
2022,12,06,09,20,1005.32
2022,12,06,09,21,1005.32
2022,12,06,09,22,1005.32
2022,12,06,09,23,1005.32
2022,12,06,09,24,1005.32
2022,12,06,09,25,1005.32
2022,12,06,09,26,1001.27
2022,12,06,09,27,991.81
2022,12,06,09,28,991.81
2022,12,06,09,29,991.81
2022,12,06,09,30,991.81
2022,12,06,09,31,991.81
2022,12,06,09,32,991.81
2022,12,06,09,33,991.81
2022,12,06,09,34,991.81
2022,12,06,09,35,991.81
2022,12,06,09,36,991.81
2022,12,06,09,37,991.81
2022,12,06,09,38,991.81
2022,12,06,09,39,992.47
2022,12,06,09,40,994.01
2022,12,06,09,41,994.01
2022,12,06,09,42,994.01
2022,12,06,09,43,994.01
2022,12,06,09,44,994.01
2022,12,06,09,45,994.01
2022,12,06,09,46,994.01
2022,12,06,09,47,994.01
2022,12,06,09,48,994.01
2022,12,06,09,49,994.01
2022,12,06,09,50,994.01
2022,12,06,09,51,994.01
2022,12,06,09,52,994.01
2022,12,06,09,53,991.82
2022,12,06,09,54,987.74
2022,12,06,09,55,987.74
2022,12,06,09,56,987.74
2022,12,06,09,57,987.74
2022,12,06,09,58,987.74
2022,12,06,09,59,987.74
2022,12,06,10,00,987.74
2022,12,06,10,01,987.74
2022,12,06,10,02,987.74
2022,12,06,10,03,987.74
2022,12,06,10,04,987.74
2022,12,06,10,05,985.73
2022,12,06,10,06,981.08
2022,12,06,10,07,981.35
2022,12,06,10,08,981.82
2022,12,06,10,09,981.82
2022,12,06,10,10,985.84
2022,12,06,10,11,994.55
2022,12,06,10,12,994.55
2022,12,06,10,13,994.55
2022,12,06,10,14,994.55
2022,12,06,10,15,994.55
2022,12,06,10,16,994.55
2022,12,06,10,17,994.55
2022,12,06,10,18,994.55
2022,12,06,10,19,994.55
2022,12,06,10,20,994.55
2022,12,06,10,21,994.55
2022,12,06,10,22,994.71
2022,12,06,10,23,995.06
2022,12,06,10,24,995.06
2022,12,06,10,25,994.52
2022,12,06,10,26,993.26
2022,12,06,10,27,992.67
2022,12,06,10,28,991.30
2022,12,06,10,29,991.30
2022,12,06,10,30,991.30
2022,12,06,10,31,991.30
2022,12,06,10,32,991.30
2022,12,06,10,33,991.98
2022,12,06,10,34,993.57
2022,12,06,10,35,993.57
2022,12,06,10,36,993.57
2022,12,06,10,37,993.57
2022,12,06,10,38,992.91
2022,12,06,10,39,991.47
2022,12,06,10,40,991.47
2022,12,06,10,41,991.47
2022,12,06,10,42,991.47
2022,12,06,10,43,991.47
2022,12,06,10,44,991.47
2022,12,06,10,45,988.38
2022,12,06,10,46,981.00
2022,12,06,10,47,980.60
2022,12,06,10,48,980.60
2022,12,06,10,49,980.60
2022,12,06,10,50,980.60
2022,12,06,10,51,980.60
2022,12,06,10,52,980.60
2022,12,06,10,53,980.60
2022,12,06,10,54,980.60
2022,12,06,10,55,980.60
2022,12,06,10,56,975.87
2022,12,06,10,57,965.63
2022,12,06,10,58,965.63
2022,12,06,10,59,965.63
2022,12,06,11,00,965.63
2022,12,06,11,01,965.63
2022,12,06,11,02,965.63
2022,12,06,11,03,965.63
2022,12,06,11,04,965.63
2022,12,06,11,05,965.63
2022,12,06,11,06,965.63
2022,12,06,11,07,965.63
2022,12,06,11,08,965.63
2022,12,06,11,09,965.63
2022,12,06,11,10,965.63
2022,12,06,11,11,965.63
2022,12,06,11,12,965.63
2022,12,06,11,13,965.63
2022,12,06,11,14,965.63
2022,12,06,11,15,965.63
2022,12,06,11,16,965.63
2022,12,06,11,17,965.63
2022,12,06,11,18,971.77
2022,12,06,11,19,983.17
2022,12,06,11,20,983.17
2022,12,06,11,21,983.17
2022,12,06,11,22,983.17
2022,12,06,11,23,983.17
2022,12,06,11,24,983.17
2022,12,06,11,25,983.17
2022,12,06,11,26,979.50
2022,12,06,11,27,971.56
2022,12,06,11,28,971.56
2022,12,06,11,29,971.56
2022,12,06,11,30,970.73
2022,12,06,11,31,968.78
2022,12,06,11,32,968.78
2022,12,06,11,33,968.78
2022,12,06,11,34,968.78
2022,12,06,11,35,968.78
2022,12,06,11,36,968.78
2022,12,06,11,37,968.78
2022,12,06,11,38,968.78
2022,12,06,11,39,968.78
2022,12,06,11,40,968.78
2022,12,06,11,41,968.78
2022,12,06,11,42,968.78
2022,12,06,11,43,968.78
2022,12,06,11,44,968.78
2022,12,06,11,45,968.78
2022,12,06,11,46,968.78
2022,12,06,11,47,973.33
2022,12,06,11,48,983.95
2022,12,06,11,49,983.95
2022,12,06,11,50,983.95
2022,12,06,11,51,983.95
2022,12,06,11,52,983.95
2022,12,06,11,53,983.95
2022,12,06,11,54,983.95
2022,12,06,11,55,983.95
2022,12,06,11,56,983.95
2022,12,06,11,57,983.95
2022,12,06,11,58,983.95
2022,12,06,11,59,983.95
2022,12,06,12,00,983.95
2022,12,06,12,01,983.07
2022,12,06,12,02,980.60
2022,12,06,12,03,980.60
2022,12,06,12,04,981.81
2022,12,06,12,05,984.47
2022,12,06,12,06,984.12
2022,12,06,12,07,984.12
2022,12,06,12,08,983.06
2022,12,06,12,09,980.65
2022,12,06,12,10,980.77
2022,12,06,12,11,980.77
2022,12,06,12,12,980.77
2022,12,06,12,13,980.77
2022,12,06,12,14,980.77
2022,12,06,12,15,980.92
2022,12,06,12,16,981.27
2022,12,06,12,17,981.27
2022,12,06,12,18,981.27
2022,12,06,12,19,981.27
2022,12,06,12,20,981.27
2022,12,06,12,21,981.27
2022,12,06,12,22,981.27
2022,12,06,12,23,980.23
2022,12,06,12,24,977.11
2022,12,06,12,25,977.11
2022,12,06,12,26,977.11
2022,12,06,12,27,977.11
2022,12,06,12,28,977.11
2022,12,06,12,29,977.11
2022,12,06,12,30,975.86
2022,12,06,12,31,972.37
2022,12,06,12,32,972.37
2022,12,06,12,33,972.37
2022,12,06,12,34,972.37
2022,12,06,12,35,971.74
2022,12,06,12,36,970.27
2022,12,06,12,37,970.27
2022,12,06,12,38,970.27
2022,12,06,12,39,970.27
2022,12,06,12,40,967.17
2022,12,06,12,41,960.09
2022,12,06,12,42,960.45
2022,12,06,12,43,960.45
2022,12,06,12,44,960.45
2022,12,06,12,45,960.45
2022,12,06,12,46,960.45
2022,12,06,12,47,960.45
2022,12,06,12,48,960.45
2022,12,06,12,49,960.45
2022,12,06,12,50,960.45
2022,12,06,12,51,960.42
2022,12,06,12,52,960.35
2022,12,06,12,53,960.35
2022,12,06,12,54,960.35
2022,12,06,12,55,960.35
2022,12,06,12,56,960.35
2022,12,06,12,57,960.35
2022,12,06,12,58,960.35
2022,12,06,12,59,960.35
2022,12,06,13,00,960.35
2022,12,06,13,01,960.35
2022,12,06,13,02,960.35
2022,12,06,13,03,960.35
2022,12,06,13,04,960.35
2022,12,06,13,05,960.35
2022,12,06,13,06,960.35
2022,12,06,13,07,960.35
2022,12,06,13,08,960.35
2022,12,06,13,09,960.35
2022,12,06,13,10,960.35
2022,12,06,13,11,960.35
2022,12,06,13,12,960.35
2022,12,06,13,13,960.35
2022,12,06,13,14,960.35
2022,12,06,13,15,960.35
2022,12,06,13,16,960.35
2022,12,06,13,17,960.35
2022,12,06,13,18,960.35
2022,12,06,13,19,960.35
2022,12,06,13,20,960.35
2022,12,06,13,21,960.35
2022,12,06,13,22,960.35
2022,12,06,13,23,960.35
2022,12,06,13,24,960.35
2022,12,06,13,25,960.35
2022,12,06,13,26,960.35
2022,12,06,13,27,960.35
2022,12,06,13,28,960.35
2022,12,06,13,29,960.35
2022,12,06,13,30,960.35
2022,12,06,13,31,960.35
2022,12,06,13,32,960.35
2022,12,06,13,33,960.35
2022,12,06,13,34,960.35
2022,12,06,13,35,960.35
2022,12,06,13,36,960.35
2022,12,06,13,37,960.35
2022,12,06,13,38,960.35
2022,12,06,13,39,960.35
2022,12,06,13,40,960.35
2022,12,06,13,41,960.35
2022,12,06,13,42,960.35
2022,12,06,13,43,960.35
2022,12,06,13,44,960.35
2022,12,06,13,45,960.35
2022,12,06,13,46,960.35
2022,12,06,13,47,960.35
2022,12,06,13,48,960.35
2022,12,06,13,49,960.35
2022,12,06,13,50,960.35
2022,12,06,13,51,957.57
2022,12,06,13,52,951.07
2022,12,06,13,53,951.07
2022,12,06,13,54,951.07
2022,12,06,13,55,951.07
2022,12,06,13,56,951.07
2022,12,06,13,57,951.07
2022,12,06,13,58,951.07
2022,12,06,13,59,951.07
2022,12,06,14,00,951.07
2022,12,06,14,01,951.07
2022,12,06,14,02,946.55
2022,12,06,14,03,936.00
2022,12,06,14,04,936.00
2022,12,06,14,05,936.00
2022,12,06,14,06,936.00
2022,12,06,14,07,936.00
2022,12,06,14,08,936.00
2022,12,06,14,09,936.00
2022,12,06,14,10,936.00
2022,12,06,14,11,936.00
2022,12,06,14,12,936.00
2022,12,06,14,13,936.00
2022,12,06,14,14,936.00
2022,12,06,14,15,936.00
2022,12,06,14,16,936.00
2022,12,06,14,17,936.00
2022,12,06,14,18,936.00
2022,12,06,14,19,936.00
2022,12,06,14,20,936.00
2022,12,06,14,21,936.00
2022,12,06,14,22,936.00
2022,12,06,14,23,936.00
2022,12,06,14,24,936.00
2022,12,06,14,25,936.00
2022,12,06,14,26,936.00
2022,12,06,14,27,936.00
2022,12,06,14,28,936.00
2022,12,06,14,29,936.00
2022,12,06,14,30,936.00
2022,12,06,14,31,936.00
2022,12,06,14,32,936.00
2022,12,06,14,33,936.00
2022,12,06,14,34,936.00
2022,12,06,14,35,936.00
2022,12,06,14,36,936.00
2022,12,06,14,37,936.00
2022,12,06,14,38,932.10
2022,12,06,14,39,922.99
2022,12,06,14,40,922.99
2022,12,06,14,41,922.99
2022,12,06,14,42,922.99
2022,12,06,14,43,922.99
2022,12,06,14,44,922.99
2022,12,06,14,45,922.99
2022,12,06,14,46,922.99
2022,12,06,14,47,922.99
2022,12,06,14,48,922.99
2022,12,06,14,49,922.99
2022,12,06,14,50,925.68
2022,12,06,14,51,933.22
2022,12,06,14,52,933.22
2022,12,06,14,53,933.22
2022,12,06,14,54,933.22
2022,12,06,14,55,933.22
2022,12,06,14,56,933.22
2022,12,06,14,57,933.22
2022,12,06,14,58,933.22
2022,12,06,14,59,933.22
2022,12,06,15,00,933.22
2022,12,06,15,01,933.22
2022,12,06,15,02,933.22
2022,12,06,15,03,933.22
2022,12,06,15,04,933.22
2022,12,06,15,05,933.22
2022,12,06,15,06,933.22
2022,12,06,15,07,933.22
2022,12,06,15,08,933.22
2022,12,06,15,09,933.22
2022,12,06,15,10,933.22
2022,12,06,15,11,933.22
2022,12,06,15,12,933.22
2022,12,06,15,13,933.22
2022,12,06,15,14,933.22
2022,12,06,15,15,932.40
2022,12,06,15,16,930.11
2022,12,06,15,17,930.11
2022,12,06,15,18,930.11
2022,12,06,15,19,930.11
2022,12,06,15,20,930.11
2022,12,06,15,21,930.11
2022,12,06,15,22,930.11
2022,12,06,15,23,930.11
2022,12,06,15,24,930.11
2022,12,06,15,25,930.11
2022,12,06,15,26,930.11
2022,12,06,15,27,930.11
2022,12,06,15,28,930.11
2022,12,06,15,29,930.11
2022,12,06,15,30,930.11
2022,12,06,15,31,930.11
2022,12,06,15,32,930.11
2022,12,06,15,33,930.11
2022,12,06,15,34,930.11
2022,12,06,15,35,930.11
2022,12,06,15,36,930.11
2022,12,06,15,37,930.11
2022,12,06,15,38,930.11
2022,12,06,15,39,930.11
2022,12,06,15,40,930.11
2022,12,06,15,41,930.11
2022,12,06,15,42,930.11
2022,12,06,15,43,930.11
2022,12,06,15,44,930.11
2022,12,06,15,45,930.11
2022,12,06,15,46,930.11
2022,12,06,15,47,930.11
2022,12,06,15,48,930.11
2022,12,06,15,49,930.11
2022,12,06,15,50,930.11
2022,12,06,15,51,930.11
2022,12,06,15,52,930.11
2022,12,06,15,53,930.11
2022,12,06,15,54,930.11
2022,12,06,15,55,930.11
2022,12,06,15,56,930.11
2022,12,06,15,57,930.11
2022,12,06,15,58,930.11
2022,12,06,15,59,930.11
2022,12,06,16,00,930.11
2022,12,06,16,01,930.11
2022,12,06,16,02,930.11
2022,12,06,16,03,930.11
2022,12,06,16,04,930.11
2022,12,06,16,05,930.11
2022,12,06,16,06,930.11
2022,12,06,16,07,930.11
2022,12,06,16,08,930.11
2022,12,06,16,09,930.11
2022,12,06,16,10,930.11
2022,12,06,16,11,930.11
2022,12,06,16,12,930.11
2022,12,06,16,13,930.11
2022,12,06,16,14,930.11
2022,12,06,16,15,930.11